H-2A DEB (43675 NORAD) Tracking and Keplerian Element Data

This shows tracking and keplerian element data for the satellite.

Feedback or suggestion? Click here.




ElementValue
Catalog43675
NameH-2A DEB
Epoch Orbit258
Epoch Day319.56459515
Epoch Year2018
RAAN69.9461
Inclination97.8503
Eccentricity0.0016572
Argument of Perigee239.8592
Mean Anonmoly120.0981
Mean Motion14.88212377
Decay Rate6.86E-06
L11 43675U 18084E 18319.56459515 .00000686 00000-0 80281-4 0 9991
L22 43675 97.8503 69.9461 0016572 239.8592 120.0981 14.88212377 2582

Live tracking and technical data element details for H-2A DEB (NORAD 43675). H-2A DEB can be tracked NOW for your location showing map with azimuth and elevation plus other details from your city location.

Track the satellite on the map from your city or location and see movement details for azimuth, elevation, latitude, longitude, range, height, and movement on the map or in text.







IsCatalogInMostPopularTable: catalog: 43675, numindb: 6
Update: records affected: 1



GetName: 43675 H-2A DEB

Hit Count: updated at: Sat, 17 Nov 2018 02:05:21 GMT